Regional Weather Roundup
Issued by NWS Upton, NY

Current Version | Previous Version | Graphics & Text | Print | Product List | Glossary Off
Versions: 1 2 3 4 5 6 7 8 9 10 11 12 13 14 15 16 17 18 19 20 21 22 23 24 25 26 27 28 29 30 31 32 33 34 35 36 37 38 39 40 41 42 43 44 45 46 47 48 49 50

000
ASUS41 KOKX 042304
RWROKX

REGIONAL WEATHER ROUNDUP
NATIONAL WEATHER SERVICE NEW YORK NY
700 PM EDT FRI SEP 04 2015

NOTE: "FAIR" INDICATES FEW OR NO CLOUDS BELOW 12,000 FEET WITH NO
SIGNIFICANT WEATHER AND/OR OBSTRUCTIONS TO VISIBILITY.

NYZ071-072-176-178-NJZ106-104-050000-
NEW YORK CITY METRO AREA


CITY           SKY/WX    TMP DP  RH WIND       PRES   REMARKS
CENTRAL PARK   MOCLDY    81  63  54 VRB6      30.14S
LAGUARDIA APRT PTCLDY    80  66  62 SE8       30.11S
KENNEDY INTL   PTCLDY    77  64  64 E16       30.12S
NEWARK/LIBERTY PTCLDY    78  67  68 SE8       30.11S
BRNX BOT. GARD   N/A     79  63  57 NW3       30.12F
TETERBORO      CLEAR     81  61  50 E9        30.10S
$$

NYZ177-179-078>081-050000-
LONG ISLAND NEW YORK

CITY           SKY/WX    TMP DP  RH WIND       PRES   REMARKS
FARMINGDALE    CLEAR     76  64  66 SE8       30.12S
ISLIP          PTCLDY    76  62  62 E10       30.11S
SHIRLEY        CLEAR     75  63  66 E6        30.14S
WESTHAMPTON    CLEAR     74  64  71 E8        30.15S
MONTAUK POINT    N/A     71  64  78 E10G18    30.17S
$$

NYZ052-065-067-050000-
HUDSON VALLEY

CITY           SKY/WX    TMP DP  RH WIND       PRES   REMARKS
WHITE PLAINS   CLEAR     76  62  62 E6        30.13S
NEWBURGH       PTCLDY    79  68  69 E9        30.14S
MONTGOMERY     CLOUDY    79  67  66 NE3       30.13S
POUGHKEEPSIE   CLEAR     80  62  54 NE5       30.12R
ALBANY         MOCLDY    80  61  52 SE6       30.14R
$$

NJZ001-105-106-008-010-013-015-019>022-104-050000-
NEW JERSEY

CITY           SKY/WX    TMP DP  RH WIND       PRES   REMARKS
NEWARK/LIBERTY PTCLDY    78  67  68 SE8       30.11S
TETERBORO      CLEAR     81  61  50 E9        30.10S
CALDWELL       CLEAR     80  62  54 E9        30.12S
MORRISTOWN     PTCLDY    79  70  73 S8        30.12R
SOMERVILLE     CLEAR     77  67  71 SE6       30.10R
SUSSEX         CLEAR     77  67  71 NE3       30.13R
ANDOVER          N/A     77  65  66 CALM      30.13R
TRENTON        PTCLDY    78  67  68 E12       30.11R
MILLVILLE      CLOUDY    78  68  71 E13       30.09R
ATLANTIC CITY  CLOUDY    76  69  79 NE14G23   30.09S
WRIGHTSTOWN    PTCLDY    74  68  80 E12       30.09R
TOMS RIVER     CLOUDY    73  66  78 E7G16     30.12S
BELMAR         CLEAR     73  63  68 E13       30.13R
$$

PAZ047>061-062-071-050000-
EASTERN PENNSYLVANIA

CITY           SKY/WX    TMP DP  RH WIND       PRES   REMARKS
PHILADELPHIA   CLOUDY    80  67  64 E15       30.10R
ALLENTOWN      PTCLDY    80  68  66 E9        30.11R
SCRANTON       CLEAR     80  67  64 VRB6      30.11R
$$

CTZ002-004>006-009-010-012-RIZ004-006-007-MAZ004-011-015-050000-
SOUTHERN NEW ENGLAND
 IN CT

CITY           SKY/WX    TMP DP  RH WIND       PRES   REMARKS
BRADLEY INTL   PTCLDY    77  58  51 NE7       30.15R
HARTFORD       CLEAR     78  60  53 E7        30.14R
DANBURY        CLEAR     76  63  64 SE8       30.15S
WTRBRY/OXFORD  CLEAR     79  59  50 CALM      30.18R
BRIDGEPORT     CLEAR     78  64  61 E10       30.13S
MERIDEN        PTCLDY    80  58  46 E3        30.14R
NEW HAVEN      PTCLDY    75  63  66 E12       30.14S
CHESTER        NOT AVBL
GROTON         CLEAR     73  62  68 E14       30.15R
WILLIMANTIC    CLEAR     75  58  55 NE10      30.17R

 IN RI

CITY           SKY/WX    TMP DP  RH WIND       PRES   REMARKS
PROVIDENCE     MOCLDY    69  58  67 NE13      30.19R
BLOCK ISLAND   CLEAR     70  63  78 E16G23    30.17S
WESTERLY       CLEAR     71  60  68 NE9       30.17S

 IN MA

CITY           SKY/WX    TMP DP  RH WIND       PRES   REMARKS
BOSTON         PTCLDY    64  59  83 NE9       30.23R
WORCESTER      CLEAR     67  55  65 E8        30.22R
WESTFIELD      CLEAR     76  57  51 NE3       30.16S
PROVINCETOWN     N/A     64  57  77 NE10G17   30.21S
NANTUCKET      PTCLDY    66  61  84 E17       30.18R
$$

ANZ330-335-338-340-345-350-353-355-050000-
COASTAL MARINE OBSERVATIONS


STATION/POSITION TIME  SKY/WX   TEMP    WIND        PRES    VSBY  WAVE
                                AIR SEA DIR/SP/G                  HT/PER
                 (UTC)          (F)     (DEG/KT/KT) (MB)    (MI)  (FT/S)
NY HARB ENTRANCE 2150            75 77   90/ 19/ 21 1019.1          4/ 6
4S FIRE IS       NOT AVBL
20S FIRE ISLAND  2150            73 75   70/ 21/ 23 1019.0          5/ 6
GREAT SOUTH BAY  2215            75 80   90/ 17/ 21   N/A
23SW MTP         2250            71 74   70/ 21/ 27 1019.7          6/ 6
HUDSON CANYON    NOT AVBL
KINGS POINT      2200            81 74   80/  4/  7 1019.0
EXECUTION ROCKS  2200            80      90/ 10/ 12   N/A
CENTRAL LI SOUND NOT AVBL
EASTERN LI SOUND 2200            73 71   90/ 12/ 16   N/A
ROBBINS REEF     2200            77     130/ 10/ 12 1018.7
$$


>>>>>>>>>>>>>>>>>>>>>>>>>>>> KEY <<<<<<<<<<<<<<<<<<<<<<<<<<<
>                                                          <
>     SKY/WX - SKY CONDITION/PRESENT WEATHER               <
>     TMP    - TEMPERATURE IN FAHRENHEIT                   <
>     DP     - DEWPOINT IN FAHRENHEIT                      <
>     RH     - RELATIVE HUMIDITY IN PERCENT                <
>     WIND   - DIRECTION AND SPEED IN MPH                  <
>     PRES   - MEAN SEA LEVEL PRESSURE IN INCHES OF HG     <
>     WCI    - WIND CHILL INDEX                            <
>     VSB    - VISIBILITY IN MILES                         <
>     HX     - HEAT INDEX                                  <
>     TC     - TEMPERATURE IN CELSIUS                      <
>     VRB    - VARIABLE WIND DIRECTION                     <
>                                                          <
>>>>>>>>>>>>>>>>>>>>>>>>>>>> KEY <<<<<<<<<<<<<<<<<<<<<<<<<<<




USA.gov is the U.S. government's official web portal to all federal, state and local government web resources and services.